Location: Unspecified
(40.7945°N, 0.0000°E)
Time: 03:40:21
(UTC+00:00)

Altair - Pass Details

Date: 22 January 2021
Orbit: 1501 x 1682 km, 47.2° (Epoch: 01 March)

Event Time Altitude Azimuth Distance (km) Brightness Sun altitude
Rises 14:09:35 0° 290° (WNW) 4,911 10.3 23.7°
Reaches altitude 10° 14:14:22 10° 271° (W) 3,894 10.1 23.3°
Maximum altitude 14:19:48 16° 237° (WSW) 3,370 10.8 22.7°
Drops below altitude 10° 14:25:10 10° 203° (SSW) 3,809 11.5 22.2°
Sets 14:29:48 0° 184° (S) 4,752 11.0 21.7°
